[[{"header":{"parameterUnit":"m.s-1","parameterCategory":1,"la1":30.2992,"la2":30.254,"lo1":-89.0895,"lo2":-89.0443,"dy":0.0025,"dx":0.0025,"nx":19,"ny":19,"refTime":"2026-03-11T09:00:00:Z","depth":0,"parameterNumber":2,"parameterNumberName":"U-component_of_WINDS"},"data":[0,0,0,-0.504,-0.5041,-0.508,-0.508,-0.5131,-0.5131,0,0,0,0,0,0,0,0,0,0,0,-0.503,-0.503,-0.504,-0.5041,-0.508,-0.508,-0.5131,-0.5131,0,0,0,0,0,0,0,0,0,0,0,-0.503,-0.503,-0.5031,-0.5041,-0.508,-0.508,-0.5131,-0.5101,0,0,0,0,0,0,0,0,0,0,-0.5063,-0.5055,-0.503,-0.5031,-0.5041,-0.508,-0.508,-0.5099,-0.5103,-0.5114,0,-0.5125,0,-0.5129,-0.5135,-0.5135,0,0,0,-0.504,-0.5052,-0.5061,-0.5031,-0.5042,-0.508,-0.5062,-0.5101,-0.5105,-0.5118,-0.5125,-0.5127,-0.513,-0.5135,-0.5135,-0.5203,-0.5204,0,0,-0.5038,-0.5038,-0.5059,-0.5064,-0.5058,-0.5061,-0.5063,-0.5103,-0.5111,-0.5126,-0.5128,-0.513,-0.5136,-0.5136,-0.5203,-0.5204,0,0,0,-0.5032,-0.5036,-0.5044,-0.5062,-0.5069,-0.5062,-0.5065,-0.5109,-0.5112,-0.5129,-0.5131,-0.5136,-0.5136,-0.5203,-0.5203,-0.5221,0,0,0,-0.5031,-0.5033,-0.5043,-0.5044,-0.5068,-0.509,-0.507,-0.5109,-0.5114,-0.5131,-0.5136,-0.5137,-0.5202,-0.5203,-0.522,-0.523,0,0,0,-0.5027,-0.5032,-0.5038,-0.5044,-0.506,-0.5089,-0.5094,-0.511,-0.5115,-0.5135,-0.5137,-0.5202,-0.5203,-0.5219,-0.5228,-0.5248,0,0,0,-0.5023,-0.5054,-0.5039,-0.5075,-0.506,-0.5099,-0.5094,-0.5123,-0.5142,-0.5136,-0.5202,-0.5203,-0.5218,-0.5227,-0.5247,-0.5265,-0.5273,0,0,-0.5063,-0.5059,-0.508,-0.5067,-0.511,-0.5093,-0.5138,-0.5156,-0.5158,-0.5188,-0.519,-0.522,-0.5228,-0.5248,-0.5313,-0.5319,0,0,0,-0.5093,-0.5108,-0.5119,-0.5137,-0.5151,-0.5164,-0.5175,-0.5181,-0.5206,-0.5174,-0.5232,-0.5237,-0.5249,-0.5257,-0.5263,-0.5272,-0.5207,-0.5207,-0.5207,-0.515,-0.515,-0.5185,-0.519,-0.5207,-0.5217,-0.5231,-0.5241,-0.5237,-0.5251,-0.526,-0.53,-0.531,-0.5314,-0.5324,-0.5269,-0.5269,-0.5269,-0.5269,-0.5209,-0.5231,-0.5223,-0.5254,-0.5254,-0.528,-0.529,-0.5285,-0.5309,-0.5293,-0.5303,-0.5287,-0.5321,-0.533,-0.5271,-0.527,-0.527,-0.527,-0.527,-0.5248,-0.5258,-0.5265,-0.529,-0.5309,-0.5312,-0.5335,-0.5333,-0.5332,-0.5342,-0.5352,-0.5351,-0.5351,-0.5346,-0.5347,-0.5347,-0.5347,-0.5347,-0.5347,-0.5286,-0.5292,-0.5312,-0.5328,-0.5339,-0.5352,-0.5361,-0.5371,-0.5383,-0.538,-0.538,-0.5374,-0.5324,-0.5311,-0.5349,-0.5349,-0.5349,-0.5348,-0.5348,-0.5348,-0.5333,-0.5363,-0.5374,-0.5392,-0.541,-0.5407,-0.5428,-0.5436,-0.5447,-0.5438,-0.5401,-0.5398,-0.5394,-0.5384,-0.5438,-0.5438,-0.5438,-0.5438,-0.5381,-0.5378,-0.5408,-0.5425,-0.5441,-0.5441,-0.5474,-0.5481,-0.5485,-0.549,-0.5481,-0.5467,-0.5463,-0.5462,-0.5457,-0.5447,-0.5517,-0.5517,-0.5517,-0.5419,-0.5418,-0.5447,-0.545,-0.5464,-0.5475,-0.5506,-0.5525,-0.5527,-0.552,-0.5493,-0.549,-0.5468,-0.546,-0.5455,-0.5446,-0.5429,0,0]},{"header":{"parameterUnit":"m.s-1","parameterCategory":1,"la1":30.2992,"la2":30.254,"lo1":-89.0895,"lo2":-89.0443,"dy":0.0025,"dx":0.0025,"nx":19,"ny":19,"refTime":"2026-03-11T09:00:00:Z","depth":0,"parameterNumber":3,"parameterNumberName":"V-component_of_WINDS"},"data":[0,0,0,-11.008,-11.0086,-11.0342,-11.0343,-11.0677,-11.068,0,0,0,0,0,0,0,0,0,0,0,-11.0013,-11.0016,-11.008,-11.0086,-11.0342,-11.0343,-11.0676,-11.068,0,0,0,0,0,0,0,0,0,0,0,-11.0012,-11.0015,-11.0018,-11.0087,-11.0342,-11.0343,-11.0676,-11.0479,0,0,0,0,0,0,0,0,0,0,-11.0229,-11.0177,-11.0014,-11.0019,-11.0089,-11.0341,-11.0343,-11.0469,-11.0491,-11.0566,0,-11.0639,0,-11.0666,-11.0704,-11.0705,0,0,0,-11.0078,-11.0159,-11.0221,-11.0019,-11.0091,-11.0341,-11.0224,-11.0481,-11.0506,-11.0595,-11.0644,-11.0656,-11.0671,-11.0706,-11.0707,-11.118,-11.1182,0,0,-11.0064,-11.0062,-11.0204,-11.0237,-11.0204,-11.0216,-11.0232,-11.0496,-11.0547,-11.0645,-11.0663,-11.0677,-11.0708,-11.0711,-11.1178,-11.1181,0,0,0,-11.0029,-11.0053,-11.0108,-11.0224,-11.027,-11.0224,-11.0242,-11.0535,-11.0553,-11.0667,-11.0681,-11.071,-11.0714,-11.1175,-11.1179,-11.131,0,0,0,-11.002,-11.0033,-11.0102,-11.0104,-11.0265,-11.0407,-11.0275,-11.0535,-11.0565,-11.0679,-11.071,-11.0718,-11.1172,-11.1177,-11.13,-11.1371,0,0,0,-10.9993,-11.0029,-11.007,-11.0103,-11.0214,-11.0402,-11.0436,-11.0542,-11.0574,-11.0705,-11.0719,-11.117,-11.1176,-11.1292,-11.1357,-11.1498,0,0,0,-10.9963,-11.0178,-11.0072,-11.0318,-11.0212,-11.0483,-11.0434,-11.0634,-11.0762,-11.0712,-11.1172,-11.1178,-11.1289,-11.1348,-11.1489,-11.1617,-11.1671,0,0,-11.0233,-11.0211,-11.0356,-11.0268,-11.056,-11.0444,-11.0753,-11.0867,-11.0877,-11.1077,-11.1089,-11.1303,-11.1356,-11.1496,-11.1969,-11.2012,0,0,0,-11.0441,-11.0545,-11.0623,-11.0748,-11.0846,-11.0934,-11.1003,-11.1046,-11.1218,-11.0982,-11.1392,-11.1423,-11.1505,-11.1566,-11.1603,-11.1674,-11.1207,-11.1206,-11.1205,-11.082,-11.0828,-11.1069,-11.1109,-11.1231,-11.1303,-11.1402,-11.1471,-11.1437,-11.1534,-11.1594,-11.1881,-11.1953,-11.198,-11.2054,-11.1661,-11.1662,-11.1662,-11.1663,-11.1219,-11.1369,-11.1327,-11.1546,-11.1551,-11.1733,-11.1811,-11.1782,-11.195,-11.1835,-11.1908,-11.1783,-11.2027,-11.2092,-11.1673,-11.1671,-11.167,-11.1669,-11.1668,-11.1469,-11.1543,-11.1596,-11.1782,-11.1923,-11.1953,-11.212,-11.2116,-11.2114,-11.2186,-11.2249,-11.2247,-11.2246,-11.2217,-11.2218,-11.2219,-11.2219,-11.222,-11.2221,-11.1708,-11.1764,-11.1908,-11.2034,-11.2116,-11.2224,-11.2301,-11.238,-11.2467,-11.2451,-11.2451,-11.2409,-11.205,-11.1961,-11.2236,-11.2234,-11.2232,-11.223,-11.2229,-11.211,-11.2021,-11.2242,-11.2326,-11.2475,-11.2617,-11.2613,-11.2776,-11.284,-11.2922,-11.2866,-11.2601,-11.2575,-11.2546,-11.2472,-11.2864,-11.2864,-11.2864,-11.2864,-11.2322,-11.2311,-11.254,-11.2674,-11.2805,-11.2826,-11.3074,-11.3137,-11.3185,-11.3226,-11.3168,-11.307,-11.304,-11.3032,-11.2992,-11.2923,-11.3421,-11.3421,-11.3422,-11.2571,-11.2573,-11.2787,-11.2841,-11.2958,-11.3058,-11.3292,-11.3445,-11.348,-11.3444,-11.3257,-11.3234,-11.3074,-11.3022,-11.298,-11.2919,-11.2792,0,0]}]]